Year,Month,Day,Hour,Minute,Value (Times are PST for temperature in C)
2019,06,01,00,00,18.70
2019,06,01,00,01,18.60
2019,06,01,00,02,18.60
2019,06,01,00,03,18.60
2019,06,01,00,04,18.60
2019,06,01,00,05,18.60
2019,06,01,00,06,18.60
2019,06,01,00,07,18.60
2019,06,01,00,08,18.60
2019,06,01,00,09,18.60
2019,06,01,00,10,18.50
2019,06,01,00,11,18.50
2019,06,01,00,12,18.50
2019,06,01,00,13,18.50
2019,06,01,00,14,18.50
2019,06,01,00,15,18.50
2019,06,01,00,16,18.50
2019,06,01,00,17,18.50
2019,06,01,00,18,18.50
2019,06,01,00,19,18.50
2019,06,01,00,20,18.50
2019,06,01,00,21,18.50
2019,06,01,00,22,18.50
2019,06,01,00,23,18.50
2019,06,01,00,24,18.40
2019,06,01,00,25,18.40
2019,06,01,00,26,18.40
2019,06,01,00,27,18.40
2019,06,01,00,28,18.40
2019,06,01,00,29,18.40
2019,06,01,00,30,18.40
2019,06,01,00,31,18.40
2019,06,01,00,32,18.40
2019,06,01,00,33,18.30
2019,06,01,00,34,18.30
2019,06,01,00,35,18.30
2019,06,01,00,36,18.30
2019,06,01,00,37,18.30
2019,06,01,00,38,18.30
2019,06,01,00,39,18.30
2019,06,01,00,40,18.30
2019,06,01,00,41,18.30
2019,06,01,00,42,18.20
2019,06,01,00,43,18.20
2019,06,01,00,44,18.20
2019,06,01,00,45,18.20
2019,06,01,00,46,18.10
2019,06,01,00,47,18.10
2019,06,01,00,48,18.10
2019,06,01,00,49,18.10
2019,06,01,00,50,18.10
2019,06,01,00,51,18.10
2019,06,01,00,52,18.00
2019,06,01,00,53,18.00
2019,06,01,00,54,18.00
2019,06,01,00,55,18.00
2019,06,01,00,56,17.90
2019,06,01,00,57,17.90
2019,06,01,00,58,17.90
2019,06,01,00,59,17.90
2019,06,01,01,00,17.80
2019,06,01,01,01,17.80
2019,06,01,01,02,17.80
2019,06,01,01,03,17.80
2019,06,01,01,04,17.70
2019,06,01,01,05,17.70
2019,06,01,01,06,17.70
2019,06,01,01,07,17.70
2019,06,01,01,08,17.70
2019,06,01,01,09,17.70
2019,06,01,01,10,17.70
2019,06,01,01,11,17.70
2019,06,01,01,12,17.60
2019,06,01,01,13,17.60
2019,06,01,01,14,17.60
2019,06,01,01,15,17.60
2019,06,01,01,16,17.60
2019,06,01,01,17,17.60
2019,06,01,01,18,17.50
2019,06,01,01,19,17.50
2019,06,01,01,20,17.50
2019,06,01,01,21,17.40
2019,06,01,01,22,17.40
2019,06,01,01,23,17.30
2019,06,01,01,24,17.30
2019,06,01,01,25,17.30
2019,06,01,01,26,17.30
2019,06,01,01,27,17.30
2019,06,01,01,28,17.30
2019,06,01,01,29,17.30
2019,06,01,01,30,17.30
2019,06,01,01,31,17.20
2019,06,01,01,32,17.20
2019,06,01,01,33,17.20
2019,06,01,01,34,17.20
2019,06,01,01,35,17.20
2019,06,01,01,36,17.20
2019,06,01,01,37,17.20
2019,06,01,01,38,17.20
2019,06,01,01,39,17.20
2019,06,01,01,40,17.20
2019,06,01,01,41,17.10
2019,06,01,01,42,17.10
2019,06,01,01,43,17.10
2019,06,01,01,44,17.10
2019,06,01,01,45,17.10
2019,06,01,01,46,17.10
2019,06,01,01,47,17.10
2019,06,01,01,48,17.10
2019,06,01,01,49,17.10
2019,06,01,01,50,17.00
2019,06,01,01,51,17.00
2019,06,01,01,52,17.00
2019,06,01,01,53,17.00
2019,06,01,01,54,17.00
2019,06,01,01,55,16.90
2019,06,01,01,56,16.90
2019,06,01,01,57,16.90
2019,06,01,01,58,16.90
2019,06,01,01,59,16.90
2019,06,01,02,00,16.90
2019,06,01,02,01,16.90
2019,06,01,02,02,16.90
2019,06,01,02,03,16.90
2019,06,01,02,04,16.90
2019,06,01,02,05,16.90
2019,06,01,02,06,16.90
2019,06,01,02,07,16.90
2019,06,01,02,08,16.80
2019,06,01,02,09,16.80
2019,06,01,02,10,16.80
2019,06,01,02,11,16.80
2019,06,01,02,12,16.80
2019,06,01,02,13,16.80
2019,06,01,02,14,16.80
2019,06,01,02,15,16.80
2019,06,01,02,16,16.70
2019,06,01,02,17,16.70
2019,06,01,02,18,16.70
2019,06,01,02,19,16.70
2019,06,01,02,20,16.70
2019,06,01,02,21,16.70
2019,06,01,02,22,16.70
2019,06,01,02,23,16.60
2019,06,01,02,24,16.60
2019,06,01,02,25,16.60
2019,06,01,02,26,16.60
2019,06,01,02,27,16.60
2019,06,01,02,28,16.60
2019,06,01,02,29,16.60
2019,06,01,02,30,16.60
2019,06,01,02,31,16.60
2019,06,01,02,32,16.60
2019,06,01,02,33,16.60
2019,06,01,02,34,16.60
2019,06,01,02,35,16.60
2019,06,01,02,36,16.60
2019,06,01,02,37,16.60
2019,06,01,02,38,16.60
2019,06,01,02,39,16.60
2019,06,01,02,40,16.60
2019,06,01,02,41,16.60
2019,06,01,02,42,16.60
2019,06,01,02,43,16.60
2019,06,01,02,44,16.60
2019,06,01,02,45,16.60
2019,06,01,02,46,16.60
2019,06,01,02,47,16.60
2019,06,01,02,48,16.60
2019,06,01,02,49,16.60
2019,06,01,02,50,16.60
2019,06,01,02,51,16.60
2019,06,01,02,52,16.60
2019,06,01,02,53,16.60
2019,06,01,02,54,16.50
2019,06,01,02,55,16.50
2019,06,01,02,56,16.50
2019,06,01,02,57,16.50
2019,06,01,02,58,16.40
2019,06,01,02,59,16.40
2019,06,01,03,00,16.40
2019,06,01,03,01,16.40
2019,06,01,03,02,16.30
2019,06,01,03,03,16.30
2019,06,01,03,04,16.30
2019,06,01,03,05,16.30
2019,06,01,03,06,16.30
2019,06,01,03,07,16.20
2019,06,01,03,08,16.20
2019,06,01,03,09,16.20
2019,06,01,03,10,16.20
2019,06,01,03,11,16.20
2019,06,01,03,12,16.10
2019,06,01,03,13,16.10
2019,06,01,03,14,16.10
2019,06,01,03,15,16.10
2019,06,01,03,16,16.10
2019,06,01,03,17,16.10
2019,06,01,03,18,16.10
2019,06,01,03,19,16.10
2019,06,01,03,20,16.10
2019,06,01,03,21,16.10
2019,06,01,03,22,16.10
2019,06,01,03,23,16.10
2019,06,01,03,24,16.10
2019,06,01,03,25,16.10
2019,06,01,03,26,16.10
2019,06,01,03,27,16.10
2019,06,01,03,28,16.10
2019,06,01,03,29,16.10
2019,06,01,03,30,16.10
2019,06,01,03,31,16.10
2019,06,01,03,32,16.10
2019,06,01,03,33,16.10
2019,06,01,03,34,16.10
2019,06,01,03,35,16.10
2019,06,01,03,36,16.10
2019,06,01,03,37,16.10
2019,06,01,03,38,16.00
2019,06,01,03,39,16.00
2019,06,01,03,40,16.00
2019,06,01,03,41,16.00
2019,06,01,03,42,16.00
2019,06,01,03,43,16.10
2019,06,01,03,44,16.10
2019,06,01,03,45,16.10
2019,06,01,03,46,16.10
2019,06,01,03,47,16.10
2019,06,01,03,48,16.10
2019,06,01,03,49,16.10
2019,06,01,03,50,16.10
2019,06,01,03,51,16.00
2019,06,01,03,52,16.00
2019,06,01,03,53,16.00
2019,06,01,03,54,15.90
2019,06,01,03,55,15.90
2019,06,01,03,56,15.90
2019,06,01,03,57,15.90
2019,06,01,03,58,15.90
2019,06,01,03,59,15.90
2019,06,01,04,00,15.90
2019,06,01,04,01,15.90
2019,06,01,04,02,15.90
2019,06,01,04,03,15.80
2019,06,01,04,04,15.80
2019,06,01,04,05,15.80
2019,06,01,04,06,15.80
2019,06,01,04,07,15.80
2019,06,01,04,08,15.80
2019,06,01,04,09,15.70
2019,06,01,04,10,15.70
2019,06,01,04,11,15.70
2019,06,01,04,12,15.70
2019,06,01,04,13,15.70
2019,06,01,04,14,15.70
2019,06,01,04,15,15.70
2019,06,01,04,16,15.70
2019,06,01,04,17,15.70
2019,06,01,04,18,15.70
2019,06,01,04,19,15.70
2019,06,01,04,20,15.70
2019,06,01,04,21,15.70
2019,06,01,04,22,15.70
2019,06,01,04,23,15.70
2019,06,01,04,24,15.80
2019,06,01,04,25,15.70
2019,06,01,04,26,15.70
2019,06,01,04,27,15.70
2019,06,01,04,28,15.70
2019,06,01,04,29,15.70
2019,06,01,04,30,15.70
2019,06,01,04,31,15.70
2019,06,01,04,32,15.70
2019,06,01,04,33,15.60
2019,06,01,04,34,15.60
2019,06,01,04,35,15.60
2019,06,01,04,36,15.60
2019,06,01,04,37,15.60
2019,06,01,04,38,15.60
2019,06,01,04,39,15.60
2019,06,01,04,40,15.60
2019,06,01,04,41,15.60
2019,06,01,04,42,15.60
2019,06,01,04,43,15.60
2019,06,01,04,44,15.60
2019,06,01,04,45,15.50
2019,06,01,04,46,15.50
2019,06,01,04,47,15.50
2019,06,01,04,48,15.50
2019,06,01,04,49,15.50
2019,06,01,04,50,15.40
2019,06,01,04,51,15.40
2019,06,01,04,52,15.40
2019,06,01,04,53,15.40
2019,06,01,04,54,15.40
2019,06,01,04,55,15.40
2019,06,01,04,56,15.40
2019,06,01,04,57,15.30
2019,06,01,04,58,15.30
2019,06,01,04,59,15.30
2019,06,01,05,00,15.30
2019,06,01,05,01,15.30
2019,06,01,05,02,15.30
2019,06,01,05,03,15.30
2019,06,01,05,04,15.30
2019,06,01,05,05,15.30
2019,06,01,05,06,15.30
2019,06,01,05,07,15.20
2019,06,01,05,08,15.20
2019,06,01,05,09,15.20
2019,06,01,05,10,15.20
2019,06,01,05,11,15.20
2019,06,01,05,12,15.20
2019,06,01,05,13,15.20
2019,06,01,05,14,15.20
2019,06,01,05,15,15.20
2019,06,01,05,16,15.20
2019,06,01,05,17,15.20
2019,06,01,05,18,15.20
2019,06,01,05,19,15.20
2019,06,01,05,20,15.20
2019,06,01,05,21,15.20
2019,06,01,05,22,15.20
2019,06,01,05,23,15.20
2019,06,01,05,24,15.20
2019,06,01,05,25,15.20
2019,06,01,05,26,15.20
2019,06,01,05,27,15.20
2019,06,01,05,28,15.20
2019,06,01,05,29,15.20
2019,06,01,05,30,15.20
2019,06,01,05,31,15.20
2019,06,01,05,32,15.20
2019,06,01,05,33,15.20
2019,06,01,05,34,15.20
2019,06,01,05,35,15.20
2019,06,01,05,36,15.20
2019,06,01,05,37,15.20
2019,06,01,05,38,15.20
2019,06,01,05,39,15.20
2019,06,01,05,40,15.20
2019,06,01,05,41,15.20
2019,06,01,05,42,15.20
2019,06,01,05,43,15.20
2019,06,01,05,44,15.20
2019,06,01,05,45,15.20
2019,06,01,05,46,15.20
2019,06,01,05,47,15.20
2019,06,01,05,48,15.20
2019,06,01,05,49,15.20
2019,06,01,05,50,15.20
2019,06,01,05,51,15.20
2019,06,01,05,52,15.20
2019,06,01,05,53,15.20
2019,06,01,05,54,15.20
2019,06,01,05,55,15.20
2019,06,01,05,56,15.20
2019,06,01,05,57,15.20
2019,06,01,05,58,15.20
2019,06,01,05,59,15.20
2019,06,01,06,00,15.20
2019,06,01,06,01,15.20
2019,06,01,06,02,15.20
2019,06,01,06,03,15.20
2019,06,01,06,04,15.20
2019,06,01,06,05,15.20
2019,06,01,06,06,15.20
2019,06,01,06,07,15.20
2019,06,01,06,08,15.20
2019,06,01,06,09,15.20
2019,06,01,06,10,15.20
2019,06,01,06,11,15.20
2019,06,01,06,12,15.20
2019,06,01,06,13,15.20
2019,06,01,06,14,15.20
2019,06,01,06,15,15.20
2019,06,01,06,16,15.20
2019,06,01,06,17,15.20
2019,06,01,06,18,15.20
2019,06,01,06,19,15.20
2019,06,01,06,20,15.20
2019,06,01,06,21,15.20
2019,06,01,06,22,15.20
2019,06,01,06,23,15.20
2019,06,01,06,24,15.20
2019,06,01,06,25,15.20
2019,06,01,06,26,15.20
2019,06,01,06,27,15.20
2019,06,01,06,28,15.20
2019,06,01,06,29,15.20
2019,06,01,06,30,15.20
2019,06,01,06,31,15.20
2019,06,01,06,32,15.20
2019,06,01,06,33,15.30
2019,06,01,06,34,15.30
2019,06,01,06,35,15.30
2019,06,01,06,36,15.30
2019,06,01,06,37,15.30
2019,06,01,06,38,15.30
2019,06,01,06,39,15.40
2019,06,01,06,40,15.40
2019,06,01,06,41,15.40
2019,06,01,06,42,15.50
2019,06,01,06,43,15.50
2019,06,01,06,44,15.60
2019,06,01,06,45,15.60
2019,06,01,06,46,15.70
2019,06,01,06,47,15.70
2019,06,01,06,48,15.70
2019,06,01,06,49,15.80
2019,06,01,06,50,15.80
2019,06,01,06,51,15.90
2019,06,01,06,52,15.90
2019,06,01,06,53,15.90
2019,06,01,06,54,15.90
2019,06,01,06,55,15.90
2019,06,01,06,56,16.00
2019,06,01,06,57,16.00
2019,06,01,06,58,16.00
2019,06,01,06,59,16.00
2019,06,01,07,00,16.00
2019,06,01,07,01,16.00
2019,06,01,07,02,16.10
2019,06,01,07,03,16.10
2019,06,01,07,04,16.10
2019,06,01,07,05,16.10
2019,06,01,07,06,16.20
2019,06,01,07,07,16.20
2019,06,01,07,08,16.20
2019,06,01,07,09,16.20
2019,06,01,07,10,16.30
2019,06,01,07,11,16.30
2019,06,01,07,12,16.30
2019,06,01,07,13,16.30
2019,06,01,07,14,16.30
2019,06,01,07,15,16.30
2019,06,01,07,16,16.30
2019,06,01,07,17,16.30
2019,06,01,07,18,16.30
2019,06,01,07,19,16.20
2019,06,01,07,20,16.20
2019,06,01,07,21,16.20
2019,06,01,07,22,16.20
2019,06,01,07,23,16.20
2019,06,01,07,24,16.20
2019,06,01,07,25,16.20
2019,06,01,07,26,16.30
2019,06,01,07,27,16.30
2019,06,01,07,28,16.30
2019,06,01,07,29,16.30
2019,06,01,07,30,16.40
2019,06,01,07,31,16.40
2019,06,01,07,32,16.40
2019,06,01,07,33,16.40
2019,06,01,07,34,16.40
2019,06,01,07,35,16.40
2019,06,01,07,36,16.40
2019,06,01,07,37,16.40
2019,06,01,07,38,16.40
2019,06,01,07,39,16.40
2019,06,01,07,40,16.40
2019,06,01,07,41,16.50
2019,06,01,07,42,16.50
2019,06,01,07,43,16.60
2019,06,01,07,44,16.60
2019,06,01,07,45,16.60
2019,06,01,07,46,16.70
2019,06,01,07,47,16.70
2019,06,01,07,48,16.70
2019,06,01,07,49,16.80
2019,06,01,07,50,16.80
2019,06,01,07,51,16.80
2019,06,01,07,52,16.90
2019,06,01,07,53,16.90
2019,06,01,07,54,16.90
2019,06,01,07,55,16.90
2019,06,01,07,56,17.00
2019,06,01,07,57,17.00
2019,06,01,07,58,17.00
2019,06,01,07,59,17.00
2019,06,01,08,00,17.00
2019,06,01,08,01,17.00
2019,06,01,08,02,17.00
2019,06,01,08,03,17.10
2019,06,01,08,04,17.10
2019,06,01,08,05,17.10
2019,06,01,08,06,17.10
2019,06,01,08,07,17.10
2019,06,01,08,08,17.10
2019,06,01,08,09,17.20
2019,06,01,08,10,17.20
2019,06,01,08,11,17.20
2019,06,01,08,12,17.20
2019,06,01,08,13,17.20
2019,06,01,08,14,17.20
2019,06,01,08,15,17.20
2019,06,01,08,16,17.20
2019,06,01,08,17,17.30
2019,06,01,08,18,17.30
2019,06,01,08,19,17.30
2019,06,01,08,20,17.30
2019,06,01,08,21,17.30
2019,06,01,08,22,17.30
2019,06,01,08,23,17.30
2019,06,01,08,24,17.40
2019,06,01,08,25,17.40
2019,06,01,08,26,17.50
2019,06,01,08,27,17.60
2019,06,01,08,28,17.60
2019,06,01,08,29,17.60
2019,06,01,08,30,17.60
2019,06,01,08,31,17.60
2019,06,01,08,32,17.70
2019,06,01,08,33,17.70
2019,06,01,08,34,17.70
2019,06,01,08,35,17.70
2019,06,01,08,36,17.70
2019,06,01,08,37,17.80
2019,06,01,08,38,17.80
2019,06,01,08,39,17.80
2019,06,01,08,40,17.80
2019,06,01,08,41,17.80
2019,06,01,08,42,17.80
2019,06,01,08,43,17.80
2019,06,01,08,44,17.80
2019,06,01,08,45,17.80
2019,06,01,08,46,17.80
2019,06,01,08,47,17.80
2019,06,01,08,48,17.80
2019,06,01,08,49,17.70
2019,06,01,08,50,17.70
2019,06,01,08,51,17.70
2019,06,01,08,52,17.70
2019,06,01,08,53,17.70
2019,06,01,08,54,17.60
2019,06,01,08,55,17.60
2019,06,01,08,56,17.60
2019,06,01,08,57,17.60
2019,06,01,08,58,17.60
2019,06,01,08,59,17.60
2019,06,01,09,00,17.50
2019,06,01,09,01,17.40
2019,06,01,09,02,17.30
2019,06,01,09,03,17.30
2019,06,01,09,04,17.20
2019,06,01,09,05,17.20
2019,06,01,09,06,17.20
2019,06,01,09,07,17.10
2019,06,01,09,08,17.10
2019,06,01,09,09,17.10
2019,06,01,09,10,17.10
2019,06,01,09,11,17.10
2019,06,01,09,12,17.10
2019,06,01,09,13,17.00
2019,06,01,09,14,17.00
2019,06,01,09,15,17.00
2019,06,01,09,16,17.10
2019,06,01,09,17,17.10
2019,06,01,09,18,17.10
2019,06,01,09,19,17.10
2019,06,01,09,20,17.10
2019,06,01,09,21,17.10
2019,06,01,09,22,17.10
2019,06,01,09,23,17.10
2019,06,01,09,24,17.10
2019,06,01,09,25,17.10
2019,06,01,09,26,17.10
2019,06,01,09,27,17.10
2019,06,01,09,28,17.10
2019,06,01,09,29,17.10
2019,06,01,09,30,17.10
2019,06,01,09,31,17.10
2019,06,01,09,32,17.10
2019,06,01,09,33,17.10
2019,06,01,09,34,17.20
2019,06,01,09,35,17.20
2019,06,01,09,36,17.20
2019,06,01,09,37,17.20
2019,06,01,09,38,17.30
2019,06,01,09,39,17.30
2019,06,01,09,40,17.30
2019,06,01,09,41,17.30
2019,06,01,09,42,17.30
2019,06,01,09,43,17.30
2019,06,01,09,44,17.40
2019,06,01,09,45,17.40
2019,06,01,09,46,17.50
2019,06,01,09,47,17.50
2019,06,01,09,48,17.60
2019,06,01,09,49,17.60
2019,06,01,09,50,17.60
2019,06,01,09,51,17.60
2019,06,01,09,52,17.70
2019,06,01,09,53,17.70
2019,06,01,09,54,17.70
2019,06,01,09,55,17.70
2019,06,01,09,56,17.70
2019,06,01,09,57,17.70
2019,06,01,09,58,17.70
2019,06,01,09,59,17.70
2019,06,01,10,00,17.70
2019,06,01,10,01,17.70
2019,06,01,10,02,17.70
2019,06,01,10,03,17.80
2019,06,01,10,04,17.80
2019,06,01,10,05,17.80
2019,06,01,10,06,17.80
2019,06,01,10,07,17.80
2019,06,01,10,08,17.80
2019,06,01,10,09,17.80
2019,06,01,10,10,17.80
2019,06,01,10,11,17.80
2019,06,01,10,12,17.80
2019,06,01,10,13,17.90
2019,06,01,10,14,17.90
2019,06,01,10,15,18.00
2019,06,01,10,16,18.10
2019,06,01,10,17,18.10
2019,06,01,10,18,18.10
2019,06,01,10,19,18.10
2019,06,01,10,20,18.10
2019,06,01,10,21,18.10
2019,06,01,10,22,18.10
2019,06,01,10,23,18.10
2019,06,01,10,24,18.10
2019,06,01,10,25,18.10
2019,06,01,10,26,18.10
2019,06,01,10,27,18.10
2019,06,01,10,28,18.10
2019,06,01,10,29,18.10
2019,06,01,10,30,18.10
2019,06,01,10,31,18.20
2019,06,01,10,32,18.20
2019,06,01,10,33,18.20
2019,06,01,10,34,18.20
2019,06,01,10,35,18.30
2019,06,01,10,36,18.30
2019,06,01,10,37,18.30
2019,06,01,10,38,18.30
2019,06,01,10,39,18.40
2019,06,01,10,40,18.40
2019,06,01,10,41,18.40
2019,06,01,10,42,18.40
2019,06,01,10,43,18.40
2019,06,01,10,44,18.50
2019,06,01,10,45,18.50
2019,06,01,10,46,18.50
2019,06,01,10,47,18.60
2019,06,01,10,48,18.70
2019,06,01,10,49,18.70
2019,06,01,10,50,18.80
2019,06,01,10,51,18.80
2019,06,01,10,52,18.90
2019,06,01,10,53,18.90
2019,06,01,10,54,18.90
2019,06,01,10,55,18.90
2019,06,01,10,56,19.00
2019,06,01,10,57,19.10
2019,06,01,10,58,19.10
2019,06,01,10,59,19.10
2019,06,01,11,00,19.20
2019,06,01,11,01,19.20
2019,06,01,11,02,19.20
2019,06,01,11,03,19.20
2019,06,01,11,04,19.10
2019,06,01,11,05,19.10
2019,06,01,11,06,19.20
2019,06,01,11,07,19.20
2019,06,01,11,08,19.20
2019,06,01,11,09,19.20
2019,06,01,11,10,19.20
2019,06,01,11,11,19.20
2019,06,01,11,12,19.20
2019,06,01,11,13,19.30
2019,06,01,11,14,19.40
2019,06,01,11,15,19.50
2019,06,01,11,16,19.50
2019,06,01,11,17,19.60
2019,06,01,11,18,19.70
2019,06,01,11,19,19.80
2019,06,01,11,20,19.80
2019,06,01,11,21,19.90
2019,06,01,11,22,19.80
2019,06,01,11,23,19.80
2019,06,01,11,24,19.70
2019,06,01,11,25,19.60
2019,06,01,11,26,19.50
2019,06,01,11,27,19.50
2019,06,01,11,28,19.40
2019,06,01,11,29,19.40
2019,06,01,11,30,19.30
2019,06,01,11,31,19.30
2019,06,01,11,32,19.20
2019,06,01,11,33,19.20
2019,06,01,11,34,19.30
2019,06,01,11,35,19.30
2019,06,01,11,36,19.30
2019,06,01,11,37,19.30
2019,06,01,11,38,19.30
2019,06,01,11,39,19.40
2019,06,01,11,40,19.40
2019,06,01,11,41,19.40
2019,06,01,11,42,19.40
2019,06,01,11,43,19.50
2019,06,01,11,44,19.50
2019,06,01,11,45,19.50
2019,06,01,11,46,19.60
2019,06,01,11,47,19.60
2019,06,01,11,48,19.50
2019,06,01,11,49,19.50
2019,06,01,11,50,19.40
2019,06,01,11,51,19.40
2019,06,01,11,52,19.40
2019,06,01,11,53,19.50
2019,06,01,11,54,19.70
2019,06,01,11,55,19.70
2019,06,01,11,56,19.80
2019,06,01,11,57,19.80
2019,06,01,11,58,19.90
2019,06,01,11,59,19.90
2019,06,01,12,00,19.90
2019,06,01,12,01,19.90
2019,06,01,12,02,19.80
2019,06,01,12,03,19.90
2019,06,01,12,04,19.90
2019,06,01,12,05,19.90
2019,06,01,12,06,19.90
2019,06,01,12,07,19.90
2019,06,01,12,08,19.80
2019,06,01,12,09,19.80
2019,06,01,12,10,19.80
2019,06,01,12,11,19.70
2019,06,01,12,12,19.80
2019,06,01,12,13,19.70
2019,06,01,12,14,19.70
2019,06,01,12,15,19.80
2019,06,01,12,16,19.80
2019,06,01,12,17,19.80
2019,06,01,12,18,20.00
2019,06,01,12,19,20.10
2019,06,01,12,20,20.20
2019,06,01,12,21,20.30
2019,06,01,12,22,20.40
2019,06,01,12,23,20.40
2019,06,01,12,24,20.40
2019,06,01,12,25,20.40
2019,06,01,12,26,20.40
2019,06,01,12,27,20.50
2019,06,01,12,28,20.60
2019,06,01,12,29,20.70
2019,06,01,12,30,20.70
2019,06,01,12,31,20.70
2019,06,01,12,32,20.70
2019,06,01,12,33,20.70
2019,06,01,12,34,20.70
2019,06,01,12,35,20.80
2019,06,01,12,36,20.80
2019,06,01,12,37,20.90
2019,06,01,12,38,21.00
2019,06,01,12,39,21.00
2019,06,01,12,40,21.10
2019,06,01,12,41,21.10
2019,06,01,12,42,21.20
2019,06,01,12,43,21.20
2019,06,01,12,44,21.30
2019,06,01,12,45,21.30
2019,06,01,12,46,21.30
2019,06,01,12,47,21.30
2019,06,01,12,48,21.30
2019,06,01,12,49,21.30
2019,06,01,12,50,21.30
2019,06,01,12,51,21.20
2019,06,01,12,52,21.20
2019,06,01,12,53,21.10
2019,06,01,12,54,21.10
2019,06,01,12,55,21.10
2019,06,01,12,56,21.10
2019,06,01,12,57,21.20
2019,06,01,12,58,21.20
2019,06,01,12,59,21.20
2019,06,01,13,00,21.30
2019,06,01,13,01,21.30
2019,06,01,13,02,21.30
2019,06,01,13,03,21.40
2019,06,01,13,04,21.40
2019,06,01,13,05,21.50
2019,06,01,13,06,21.60
2019,06,01,13,07,21.60
2019,06,01,13,08,21.70
2019,06,01,13,09,21.70
2019,06,01,13,10,21.70
2019,06,01,13,11,21.70
2019,06,01,13,12,21.70
2019,06,01,13,13,21.70
2019,06,01,13,14,21.70
2019,06,01,13,15,21.70
2019,06,01,13,16,21.60
2019,06,01,13,17,21.60
2019,06,01,13,18,21.50
2019,06,01,13,19,21.50
2019,06,01,13,20,21.50
2019,06,01,13,21,21.60
2019,06,01,13,22,21.60
2019,06,01,13,23,21.70
2019,06,01,13,24,21.60
2019,06,01,13,25,21.60
2019,06,01,13,26,21.60
2019,06,01,13,27,21.60
2019,06,01,13,28,21.60
2019,06,01,13,29,21.60
2019,06,01,13,30,21.60
2019,06,01,13,31,21.60
2019,06,01,13,32,21.70
2019,06,01,13,33,21.70
2019,06,01,13,34,21.80
2019,06,01,13,35,21.80
2019,06,01,13,36,21.80
2019,06,01,13,37,21.80
2019,06,01,13,38,21.80
2019,06,01,13,39,21.70
2019,06,01,13,40,21.70
2019,06,01,13,41,21.70
2019,06,01,13,42,21.70
2019,06,01,13,43,21.80
2019,06,01,13,44,21.80
2019,06,01,13,45,21.80
2019,06,01,13,46,21.90
2019,06,01,13,47,21.90
2019,06,01,13,48,21.90
2019,06,01,13,49,22.00
2019,06,01,13,50,22.00
2019,06,01,13,51,22.10
2019,06,01,13,52,22.10
2019,06,01,13,53,22.20
2019,06,01,13,54,22.20
2019,06,01,13,55,22.30
2019,06,01,13,56,22.40
2019,06,01,13,57,22.50
2019,06,01,13,58,22.50
2019,06,01,13,59,22.50
2019,06,01,14,00,22.40
2019,06,01,14,01,22.40
2019,06,01,14,02,22.40
2019,06,01,14,03,22.30
2019,06,01,14,04,22.30
2019,06,01,14,05,22.30
2019,06,01,14,06,22.40
2019,06,01,14,07,22.40
2019,06,01,14,08,22.40
2019,06,01,14,09,22.40
2019,06,01,14,10,22.50
2019,06,01,14,11,22.50
2019,06,01,14,12,22.50
2019,06,01,14,13,22.40
2019,06,01,14,14,22.40
2019,06,01,14,15,22.40
2019,06,01,14,16,22.40
2019,06,01,14,17,22.40
2019,06,01,14,18,22.40
2019,06,01,14,19,22.40
2019,06,01,14,20,22.30
2019,06,01,14,21,22.20
2019,06,01,14,22,22.10
2019,06,01,14,23,22.00
2019,06,01,14,24,21.90
2019,06,01,14,25,21.90
2019,06,01,14,26,21.90
2019,06,01,14,27,21.80
2019,06,01,14,28,21.80
2019,06,01,14,29,21.70
2019,06,01,14,30,21.70
2019,06,01,14,31,21.70
2019,06,01,14,32,21.70
2019,06,01,14,33,21.70
2019,06,01,14,34,21.60
2019,06,01,14,35,21.60
2019,06,01,14,36,21.60
2019,06,01,14,37,21.70
2019,06,01,14,38,21.70
2019,06,01,14,39,21.80
2019,06,01,14,40,21.90
2019,06,01,14,41,22.00
2019,06,01,14,42,22.00
2019,06,01,14,43,22.10
2019,06,01,14,44,22.00
2019,06,01,14,45,21.80
2019,06,01,14,46,21.80
2019,06,01,14,47,21.70
2019,06,01,14,48,21.70
2019,06,01,14,49,21.80
2019,06,01,14,50,21.80
2019,06,01,14,51,21.80
2019,06,01,14,52,21.80
2019,06,01,14,53,21.70
2019,06,01,14,54,21.60
2019,06,01,14,55,21.40
2019,06,01,14,56,21.30
2019,06,01,14,57,21.20
2019,06,01,14,58,21.20
2019,06,01,14,59,21.10
2019,06,01,15,00,21.20
2019,06,01,15,01,21.20
2019,06,01,15,02,21.20
2019,06,01,15,03,21.20
2019,06,01,15,04,21.20
2019,06,01,15,05,21.20
2019,06,01,15,06,21.20
2019,06,01,15,07,21.20
2019,06,01,15,08,21.20
2019,06,01,15,09,21.10
2019,06,01,15,10,21.10
2019,06,01,15,11,21.10
2019,06,01,15,12,21.10
2019,06,01,15,13,21.10
2019,06,01,15,14,21.10
2019,06,01,15,15,21.10
2019,06,01,15,16,21.10
2019,06,01,15,17,21.10
2019,06,01,15,18,21.00
2019,06,01,15,19,21.00
2019,06,01,15,20,20.90
2019,06,01,15,21,20.90
2019,06,01,15,22,20.90
2019,06,01,15,23,20.80
2019,06,01,15,24,20.80
2019,06,01,15,25,20.80
2019,06,01,15,26,20.80
2019,06,01,15,27,20.80
2019,06,01,15,28,20.90
2019,06,01,15,29,20.90
2019,06,01,15,30,20.90
2019,06,01,15,31,20.90
2019,06,01,15,32,20.80
2019,06,01,15,33,20.80
2019,06,01,15,34,20.80
2019,06,01,15,35,20.80
2019,06,01,15,36,20.80
2019,06,01,15,37,20.80
2019,06,01,15,38,20.80
2019,06,01,15,39,20.80
2019,06,01,15,40,20.80
2019,06,01,15,41,20.80
2019,06,01,15,42,20.80
2019,06,01,15,43,20.80
2019,06,01,15,44,20.80
2019,06,01,15,45,20.80
2019,06,01,15,46,20.70
2019,06,01,15,47,20.70
2019,06,01,15,48,20.70
2019,06,01,15,49,20.70
2019,06,01,15,50,20.70
2019,06,01,15,51,20.70
2019,06,01,15,52,20.70
2019,06,01,15,53,20.70
2019,06,01,15,54,20.80
2019,06,01,15,55,20.80
2019,06,01,15,56,20.80
2019,06,01,15,57,20.70
2019,06,01,15,58,20.70
2019,06,01,15,59,20.70
2019,06,01,16,00,20.70
2019,06,01,16,01,20.70
2019,06,01,16,02,20.60
2019,06,01,16,03,20.60
2019,06,01,16,04,20.60
2019,06,01,16,05,20.60
2019,06,01,16,06,20.70
2019,06,01,16,07,20.70
2019,06,01,16,08,20.70
2019,06,01,16,09,20.80
2019,06,01,16,10,20.80
2019,06,01,16,11,20.90
2019,06,01,16,12,20.90
2019,06,01,16,13,20.90
2019,06,01,16,14,21.00
2019,06,01,16,15,21.00
2019,06,01,16,16,21.00
2019,06,01,16,17,21.00
2019,06,01,16,18,21.00
2019,06,01,16,19,21.10
2019,06,01,16,20,21.10
2019,06,01,16,21,21.10
2019,06,01,16,22,21.10
2019,06,01,16,23,21.00
2019,06,01,16,24,20.90
2019,06,01,16,25,20.90
2019,06,01,16,26,20.90
2019,06,01,16,27,20.90
2019,06,01,16,28,20.80
2019,06,01,16,29,20.80
2019,06,01,16,30,20.90
2019,06,01,16,31,20.90
2019,06,01,16,32,20.90
2019,06,01,16,33,20.90
2019,06,01,16,34,20.90
2019,06,01,16,35,20.90
2019,06,01,16,36,20.90
2019,06,01,16,37,20.90
2019,06,01,16,38,20.90
2019,06,01,16,39,20.90
2019,06,01,16,40,20.80
2019,06,01,16,41,20.70
2019,06,01,16,42,20.70
2019,06,01,16,43,20.60
2019,06,01,16,44,20.60
2019,06,01,16,45,20.60
2019,06,01,16,46,20.70
2019,06,01,16,47,20.70
2019,06,01,16,48,20.70
2019,06,01,16,49,20.70
2019,06,01,16,50,20.70
2019,06,01,16,51,20.70
2019,06,01,16,52,20.70
2019,06,01,16,53,20.60
2019,06,01,16,54,20.60
2019,06,01,16,55,20.50
2019,06,01,16,56,20.60
2019,06,01,16,57,20.50
2019,06,01,16,58,20.60
2019,06,01,16,59,20.60
2019,06,01,17,00,20.50
2019,06,01,17,01,20.40
2019,06,01,17,02,20.40
2019,06,01,17,03,20.40
2019,06,01,17,04,20.40
2019,06,01,17,05,20.40
2019,06,01,17,06,20.40
2019,06,01,17,07,20.40
2019,06,01,17,08,20.40
2019,06,01,17,09,20.50
2019,06,01,17,10,20.50
2019,06,01,17,11,20.40
2019,06,01,17,12,20.40
2019,06,01,17,13,20.40
2019,06,01,17,14,20.50
2019,06,01,17,15,20.50
2019,06,01,17,16,20.40
2019,06,01,17,17,20.40
2019,06,01,17,18,20.40
2019,06,01,17,19,20.40